TIMESTAMP,CO2_1_1_1,H2O_1_1_1,TAU_1_1_1,TAU_SSITC_TEST_1_1_1,H_1_1_1,H_SSITC_TEST_1_1_1,LE_1_1_1,LE_SSITC_TEST_1_1_1,FC_1_1_1,FC_SSITC_TEST_1_1_1,WD_0_0_1,WS_0_0_1,WS_MAX_0_0_1,U_SIGMA_0_0_1,V_SIGMA_0_0_1,W_SIGMA_0_0_1,USTAR_0_0_1,MO_LENGTH_0_0_1,ZL_0_0_1,FETCH_MAX_0_0_1,FETCH_70_0_0_1,FETCH_80_0_0_1,FETCH_90_0_0_1,PA_0_0_1,RH_0_0_1,TA_0_0_1,VPD_0_0_1,T_SONIC_0_0_1,T_SONIC_SIGMA_0_0_1
[yyyymmddHHMMSS],[mmolCO2 mol-1],[mmolH2O mol-1],[kg m-1 s-2],[#],[W m-2],[#],[W m-2],[#],[umolCO2 m-2 s-1],[#],[Decimal degrees],[m s-1],[m s-1],[m s-1],[m s-1],[m s-1],[m s-1],[m],[#],[m],[m],[m],[m],[kPa],[%],[deg C],[hPa],[deg C],[deg C]
20210920003000,419.08760144815199,21.004818166536456,0.97874270126940144,0,-94.421084782793244,0,24.470005193076915,0,10.834142503088692,0,150.97210645398391,4.3329714650758104,11.418891346767744,1.9442484028670555,1.5310131103393083,1.1678776219536338,0.94848002220239758,752.75737831830463,2.5240536389622502E-002,106.01311131532668,193.82577863210608,231.95995322802466,290.38633607211062,93.476967740283101,66.802413793103455,23.802413793103426,9.7601023898810126,25.008474110309123,0.22405266040448998
20210920010000,420.37854858804718,21.058704881585815,0.81427684267476164,0,-92.111324709931893,0,18.848412569225168,0,10.468478591598755,0,144.30859134136728,3.5334347605804250,11.266170248046164,1.6878017961820975,1.3299011679195760,1.0170367815594348,0.86432599489465445,584.03293140143944,3.2532412092598606E-002,109.93288663462643,200.99237806400433,240.53654237297206,301.12320794649332,93.500653211805570,68.959333333333333,23.321666666666658,8.8654496665065636,24.531253743489629,0.27244714583929036
20210920013000,421.96160645656693,21.249571874271687,0.53988279805075357,0,-71.750942056577202,0,-8.3662525744743999,2,7.3980939760229774,0,146.30590408160646,3.0993378996427237,10.836204515063610,1.4939445055900342,1.2207851845008226,0.90833876813711945,0.70292564636043742,403.43174716986221,4.7095946546814968E-002,101.99623259048367,186.48164320533198,223.17089884053658,279.38348292610982,93.543700342421147,72.236333333333334,22.711000000000013,7.6419173699382696,23.966750391249207,0.22780676392194005
20210920020000,423.22012023423270,21.426726390993135,0.54870852787143087,0,-73.392715260716713,0,1.9301428232318325,2,9.2068456630938691,0,144.38278787331046,3.3373549672143312,9.4141016795602326,1.4988644671127631,1.0877024557839963,0.87574413101731841,0.70801625837192228,403.12779940200056,4.7131455652982962E-002,105.63010121319630,193.12551401060495,231.12191532616768,289.33721206418073,93.569924768446171,74.943333333333328,22.246666666666670,6.7050014059937801,23.538302662319666,0.20643277701011783
20210920023000,423.84023667725370,21.263353872155793,0.74805896541920613,0,-90.450136856474771,0,10.460900573749191,1,11.534403055895694,0,147.26799111807361,3.3650282496810231,10.021886546175999,1.6425933784813775,1.2618844317662676,0.94977297540022532,0.82632714276217978,520.07447883082523,3.6533228938120034E-002,112.01615676352854,204.80126028456681,245.09480158889241,306.82960758210993,93.590095012586815,75.180333333333337,22.072666666666635,6.5715804956143486,23.325196005079533,0.21982808592548153
20210920030000,424.77110565353820,21.036442690199713,0.71376996428581174,0,-90.631607180502002,0,5.2601910646353485,2,12.676681723874207,0,143.76501887389639,3.3580045052924801,9.3811249330200130,1.6162532862076977,1.1756547291255803,0.94366863029778969,0.80665424393781238,482.85140134045037,3.9349580320682184E-002,110.44580464478044,201.93015577337485,241.65882277931965,302.52816984060280,93.599904827907991,75.844666666666669,21.754333333333307,6.2726661818714682,22.992194288465669,0.24349193710284001
20210920033000,426.59461150179305,20.816731179573082,0.67415542372475956,0,-71.692282215293574,0,10.127613592324238,0,10.510076634974725,0,144.15063592391104,3.2327406028146268,9.2039637513786143,1.5328714465868456,1.0766492548567537,0.89316136169448468,0.78320401365065340,558.70115284539554,3.4007447278809722E-002,112.72256994084864,206.09280887163536,246.64045538150157,308.76458271650529,93.605283515295028,77.480999999999995,21.235000000000014,5.6647827626170058,22.439306945732937,0.25389644702773390
20210920040000,428.36738959070237,20.653481082296672,0.52213325024142276,0,-66.564623465372009,0,1.3205991664118220,2,9.9469488089512286,0,144.43961273705560,3.4194378361379290,8.4240335522787415,1.4287061093311435,1.1461134149570698,0.87394301142148767,0.68868469159561940,409.08925691011348,4.6444632018715529E-002,103.48675097908411,189.20678619615168,226.43219898931625,283.46624371242785,93.602196713975687,79.200999999999993,20.749000000000024,5.0781739284759873,21.937189921061190,0.23369993123779881
20210920043000,430.63298831979358,20.497617625779036,0.63995859444119008,0,-47.887113396518430,0,7.4364708898728793,1,6.7157498923551975,0,141.72502730922452,3.6974841100599591,9.7249322326936003,1.5395637921325136,1.2196345081571607,0.92383419733155570,0.76185302373391706,769.62832525723877,2.4687241070096379E-002,107.31900284368896,196.21336483869351,234.81728411928390,293.96337528474908,93.572729348958333,81.176666666666662,20.221666666666692,4.4487139608960362,21.383126869201760,0.19934676761502734
20210920050000,432.16170102602695,20.412965992567962,1.1824688608728224,0,-66.498373990652922,0,-6.9103338215464927,0,7.4220874444929255,0,140.35577164735210,4.3058368880545910,12.847025140415139,1.9825842546573429,1.4147239356778851,1.1232258846205470,1.0352483196896078,1390.3688130784460,1.3665438854264635E-002,117.30508666130414,214.47111095537508,256.66714312752777,321.31680596447887,93.551609027994800,82.099999999999994,19.968333333333305,4.1647000361592408,21.115971655103976,0.17111349770000470
20210920053000,435.14254056506968,20.564347716437123,0.88213348158813421,0,-65.910506687834456,0,-14.453450072247698,0,8.8272263813050351,0,144.40987014121134,3.3926685206450689,9.4594072557246847,1.6881907926625415,1.2759865230194234,1.0286774183531979,0.89362885741744758,902.27957187632148,2.1057774765407627E-002,111.88124296496646,204.55459483224621,244.79960604170020,306.46005778620321,93.554005337239573,84.576666666666668,19.608666666666693,3.5093079775181604,20.772429313659700,0.17463591932216899
20210920060000,437.51013723247513,20.683925768519721,0.76797418846065224,0,-43.255808927428674,0,-9.0397656789464591,0,5.4147257322248947,0,139.00896583140755,3.9719439877593756,10.708426002353225,1.7246954277802780,1.2720534740560965,0.96736082104864185,0.83354140497834439,1115.4614836191629,1.7033308885174306E-002,111.15419215241148,203.22531406593217,243.20879646746721,304.46855297159482,93.519742861657491,86.659999999999997,19.304666666666662,2.9784471524744278,20.476981973157990,0.15605286294570631
20210920063000,439.50478455844063,20.629104594354228,0.81299808408195495,0,-63.468769872193370,0,-11.068809588785435,0,8.6703294228794192,0,140.12670119823002,3.5926278659420658,9.9952020725327966,1.6687700711594071,1.3034499158950541,0.99731736246229330,0.85735935630337345,827.05324122488264,2.2973128032072777E-002,110.94775256206259,202.84787665424400,242.75710028453651,303.90308295078449,93.487739138237842,87.903333333333336,19.028000000000020,2.6546782016619366,20.201014118618446,0.14191426368794013
20210920070000,441.11394987985329,20.478335540631065,0.55256913041628941,0,-57.428402141247759,0,-13.687768927557387,1,9.7268848871002298,0,142.46909651818200,2.8438821640211480,9.0844497145572713,1.3573542834510828,1.0471517346170984,0.84533981988085116,0.70667081819414512,511.75715308377278,3.7126984714349012E-002,108.49346116436894,198.36064922316606,237.38703510341341,297.18039857913431,93.471857903998142,88.120000000000005,18.868333333333339,2.5812731337138097,20.045841269305299,0.16842281120045904
20210920073000,441.43979210820612,20.300356283561708,0.36772831688820556,0,-49.475056161255253,0,-1.1488693425526777,2,8.8966242041198882,0,143.13231925215808,2.8784178625036803,8.4128680388162991,1.3009561458687309,0.96386686845338310,0.76054452209956847,0.57651428578672170,322.46078923101686,5.8921892628588865E-002,100.32363152955629,183.42359501720878,219.51119619575846,274.80196949096165,93.444125627170138,87.526666666666671,18.831999999999994,2.7040472939600546,19.989258519490591,0.17054069042109818
20210920080000,441.80453660040132,20.168701105728559,0.43983583874993631,0,-57.932202653036313,0,-10.678641597401267,1,10.655592911385698,0,143.84286946380396,2.8529496892710613,8.6308328727016352,1.3275322105719025,1.0441049751029690,0.75902050505392704,0.63057260668576320,360.25494958663512,5.2740427360681762E-002,107.95435653183742,197.37499401629458,236.20745756064068,295.70370746934611,93.414640390164891,87.036666666666662,18.812666666666644,2.8068796626635435,19.957457473047839,0.20548479098598260
20210920083000,442.22133627901246,20.044130462215502,0.47393639138050431,0,-49.915073723691599,0,-7.1120450500622736,0,8.2371547943459049,0,145.35075924895150,3.0686321971463419,9.1989211030438192,1.3848600307616288,1.0516084322732600,0.81093079948699365,0.65455633837320504,467.57223594819828,4.0635432429963585E-002,105.49344857676496,192.87566940808546,230.82291514815373,288.96289932195913,93.391996644314233,86.806666666666672,18.752000000000010,2.8458684155579683,19.878846104939839,0.19783082126468157
20210920090000,443.58281654022346,19.982040944817989,0.37721076937156706,0,-51.648570030503819,0,-6.0971870147733149,0,9.4765643872732035,0,146.32426634743553,2.9213276028205706,8.5668309560369273,1.2249065022782279,1.0018451161826851,0.72220076852247750,0.58375582473361010,320.47633739347219,5.9286748452421038E-002,105.61206258905625,193.09253365255287,231.08244626088032,289.28780147801064,93.370355764105895,87.933333333333337,18.492666666666651,2.5609383086377715,19.609028341505336,0.21021231408588265
20210920093000,445.21717112009503,19.901400704116735,0.38956930850071686,0,-48.672704482929703,0,-8.5143455647430972,0,8.4676929976743178,0,143.24587167778418,2.7682466431336179,6.7057077748523284,1.1469599889915125,0.95429853878761639,0.74850704930221201,0.59295107640538469,356.30976199830963,5.3324388008460288E-002,103.92338242316802,190.00508773239375,227.38756203914070,284.66224488330448,93.341802703776054,89.583333333333329,18.127000000000010,2.1606173352762674,19.234359435187457,0.17197966245524332
20210920100000,447.35800846492441,19.840650633335756,0.44910600446703242,0,-64.272979090272898,0,-13.032991916980054,0,14.978507251086940,0,143.97941241706769,2.6991667580928294,7.7233045829556195,1.2299125567243907,0.87672671241332112,0.73053167476454484,0.63639592970332415,333.54447516442156,5.6963917602394415E-002,112.13096859041160,205.01117292146313,245.34601340282174,307.14409496327119,93.326818161675348,90.840000000000003,17.854333333333329,1.8676573301905002,18.945758689880449,0.18731108828418075
20210920103000,448.47271885187939,19.729322006907541,0.38338124587544997,0,-57.759599637664870,0,-6.6732034571949548,0,13.372709487892198,0,142.55261557970033,2.6544361107098666,7.8135656089382310,1.2248068743052622,1.0080547762444609,0.76378740853087501,0.58788539403602202,292.50113248551395,6.4957013460250346E-002,101.55727526940210,185.67908922413778,222.21044670019401,278.18111081779796,93.291890231119794,91.430000000000007,17.656333333333350,1.7256973616669280,18.745789236280643,0.18266637580497685
20210920110000,448.83310973427729,19.617094652802365,0.44623537527528190,0,-57.860473626932283,0,-7.7627515958606379,0,14.508995367599979,0,145.29430035306552,2.9757328107994745,8.3245163580169397,1.2211563978024458,0.99138870391380263,0.76659269737478308,0.63424565447648562,366.59845896144287,5.1827822882360597E-002,107.59922860845325,196.72570691010634,235.43042672477418,294.73095706867451,93.272500782552086,91.180000000000007,17.605999999999995,1.7704097193144321,18.665708359612381,0.17804323138629599
20210920113000,449.61466157557146,19.566033680971803,0.34215634758741181,0,-51.539160954754422,0,-7.9260442115603347,0,9.7713215405055180,0,146.43541940906422,2.6713987541101525,7.3616961499031683,1.1330160132376201,0.87268202865989697,0.66983134250466614,0.55527829862398981,276.13510488820481,6.8806898013536816E-002,107.76831396120687,197.03484886194732,235.80039068517164,295.19410804557151,93.252037930863850,91.853333333333339,17.444666666666649,1.6186860845577054,18.510800114434687,0.18181226070438178
20210920120000,450.04344494299130,19.591413879289789,0.35843245036628457,0,-50.792868135140189,0,-11.928617820241014,0,12.322772852292045,0,145.66002203032534,2.6268153588342273,7.2209930424368158,1.1352598210206155,0.86902968271415648,0.68480431243389772,0.56824888797272555,300.29029451699296,6.3272108179722800E-002,107.85308850305333,197.18984376189604,235.98587999416043,295.42631864946338,93.252058011067717,92.483333333333334,17.356999999999971,1.4852600542219057,18.423972550286180,0.18144408720690841
20210920123000,448.91787776510586,19.710617235683291,0.34607894839664122,0,-42.600610107697385,0,-10.766632226920922,0,9.6079365154828587,0,149.85067367766757,2.7353608727812091,6.9485279478158040,1.1670339814934727,0.96023843726112401,0.74028217796830376,0.55852375762019757,340.03292372982082,5.5876942125453667E-002,99.947143292072411,182.73525444432352,218.68742833465018,273.77070988070454,93.273912740738552,91.816666666666663,17.571333333333314,1.6390251540939971,18.632441076589600,0.20204896270817871
20210920130000,445.31901425226692,19.941817165435431,0.49821403515298934,0,-15.896481534728744,1,3.5971155713803760,2,3.9769801440303976,1,152.91259503298539,3.0268412794428787,8.1996129888257894,1.3199876693788428,1.0663185454765949,0.84060515445348494,0.67091377135445107,1579.6840542628584,1.2027721586938557E-002,104.54773442269695,191.14660231438970,228.75366344689755,286.37244173832585,93.284760843098965,88.986666666666665,18.255999999999972,2.3029566173542797,19.323276859707335,0.29065468074176209
20210920133000,440.82482034691407,20.259413440077594,0.54028557516851183,0,-16.566806720197611,1,17.313025161071192,0,6.2335797143553222,0,163.02913208950957,2.7857706914528984,8.5069736507159490,1.4215464776736046,1.2323369631490666,0.89116500696075773,0.69977538813727835,1720.1555659242476,1.1045512613152062E-002,103.19421006578450,188.67192810550111,225.79211045946994,282.66492882872842,93.293046233940970,85.379999999999995,19.171666666666681,3.2373066752868636,20.267045216878273,0.32069130903604115
20210920140000,436.62702335998478,20.424646194872047,0.63171022854323855,0,22.708831858086910,1,47.499370003978854,0,4.2313815630591982,1,163.28675060486535,3.6860383656492539,9.4266507134479838,1.7031879683454956,1.3540665988230909,0.97649933450919357,0.75773541068446948,-1593.6450969279917,-1.1922353375055442E-002,102.21894754692462,186.88883717699821,223.65820602582957,279.99353369612243,93.318050406446190,81.496666666666670,20.056333333333328,4.3285935229507162,21.123946633543710,0.18266779564891733
20210920143000,433.54952602491574,20.692500149023161,0.76345021179617467,0,83.508757508672176,0,90.867169033149125,0,-1.9486802834448234,1,160.69607432535770,3.2155200710660004,9.5629065078823245,1.5524755415703841,1.5456868021191854,1.0478722775558942,0.83402179731636827,-577.88127139499534,-3.2878726029889033E-002,104.31581129866500,190.72257287557269,228.24620850726339,285.73716837069759,93.311584106336795,79.244000000000000,20.720333333333315,5.0587390960526095,21.795225155300500,0.28258521513073265
20210920150000,428.79320048192591,20.830119015130578,0.80173196262721036,0,90.808252343164270,0,109.37470875927133,0,8.9173240782148486E-002,2,156.69034137540629,3.3409493676279518,10.178425667833411,1.7537879555673683,1.4354504002689421,1.0942214948950499,0.85619889946380534,-574.82616690953057,-3.3053470933918583E-002,102.90356922179139,188.14054394753879,225.15617933979669,281.86881852922937,93.275761025824664,75.367000000000004,21.639666666666642,6.3520383306042554,22.699973080105224,0.34834144619338214
20210920153000,425.27169396206631,20.928812747253073,1.1076055763840322,0,94.247447895831812,0,141.76598417683567,0,1.1805869996112253,2,149.04793127925277,3.7242526214219192,12.519197050478457,2.1376527534090277,1.5533563945555093,1.1637656540731613,1.0077891524103506,-903.08653344817628,-2.1038958390237492E-002,111.59846335886353,204.03758352436040,244.18087555269142,305.68548063519501,93.257014489583341,72.244666666666660,22.408000000000015,7.5003794522287448,23.405436279296907,0.24708781030805788
20210920160000,422.30602633424030,20.774567252969064,1.2580556707920356,0,144.33098562765827,0,142.25289817094171,0,-6.0243719599148733,0,151.88174190561313,3.8917424693931673,14.464598430134364,2.1690404324059163,1.8550535958411094,1.2360044568219390,1.0754595286043191,-716.49944316261792,-2.6517815444676806E-002,112.02478725865123,204.81703958220635,245.11368537807806,306.85324784533844,93.229570438802099,68.700333333333333,23.110999999999990,8.8263880377848203,24.053429855346678,0.34676675877000296
20210920163000,420.22790318078626,20.756877352316955,1.3468609295775205,0,218.03928346319105,0,184.18207053050949,0,-9.2431182030331538,0,144.75181766886385,4.4769633869920797,12.592565873357758,2.3629776326788128,1.9016557047610088,1.3699173859110747,1.1140206853919512,-526.89790096927061,-3.6060117083495657E-002,106.12409552467528,194.02869316339343,232.20279009688116,290.69033901584783,93.165042517502926,66.705666666666673,23.573666666666668,9.6547065750406738,24.451460478839351,0.43006081217083814
20210920170000,419.64362934940982,20.687976777422111,1.4693157696598695,0,160.32298485313709,0,140.15020247751985,0,-6.5825080242676730,0,148.22764668226881,4.4708966521007980,13.948801840959760,2.4046920456792260,1.8182550035503617,1.3418791844259270,1.1633072583999864,-815.72077085838816,-2.3292284172200469E-002,111.69653922248550,204.21689748275375,244.39546856346425,305.95412562014957,93.129027994140415,67.413666666666671,23.336999999999989,9.3155202850545269,24.278308826771820,0.30786895938181730
20210920173000,418.83453295379792,20.521069887421799,1.0058461685587956,0,132.08984921469767,0,111.44015428593318,0,-5.0205059364124827,0,160.59670818512478,4.9587626622640801,14.809785343683403,2.1830252657585922,1.9124194649941164,1.3397350221621089,0.96167740944163715,-559.33044759628058,-3.3969185982369442E-002,96.042466067292736,175.59625914449825,210.14387428560039,263.07519402629850,93.132911296874994,68.833333333333329,22.858999999999980,8.6558797133135563,23.840407542758612,0.39985331709012034
20210920180000,419.84945051945817,20.681302881828334,0.78670359819993740,0,33.523642958450175,1,69.081308688586958,0,-1.6380493338006572,2,152.31935224300142,3.9459898190759843,12.266903808507541,1.9286943411938087,1.5375973938173759,1.1174589487674318,0.84940287061939779,-1518.4171469066864,-1.2513030453262944E-002,100.54503210328863,183.82838587808283,219.99562747119626,275.40841996310343,93.116908113932297,72.924333333333337,22.033999999999992,7.1520346951271927,23.107210244920566,0.26916765510145507
20210920183000,419.79608406391907,20.995424755713390,1.1300193278076796,0,155.83208332081719,0,117.71805790351739,0,-10.744916955866675,0,142.07279948991106,4.2251871632668978,14.040422056433668,2.3618677414300335,1.5393834703487237,1.1259650280212921,1.0185636664689635,-563.06782485818121,-3.3743714631155657E-002,115.56478685427211,211.28928786796493,252.85931354085355,316.54985517545913,93.064880210794200,73.442666666666668,22.156000000000006,7.0674540625470517,23.175154118010482,0.33256264532891322
20210920190000,420.32342900652361,20.880855742134035,0.95388006198092268,0,74.853645469426212,0,81.960432578896999,0,-6.7017280231716505,0,145.54236536337703,4.4443025916485324,12.390108636205175,1.9494006239857793,1.6870298625206417,1.2383799591619464,0.93596258919540909,-909.22390737345290,-2.0896942816744452E-002,100.08720461813128,182.99133121862795,218.99388683057182,274.15435955191037,93.024190392361106,73.125666666666660,22.129999999999995,7.1404985021633891,23.171027207268651,0.35793241045809426
20210920193000,418.86056316721618,21.033686917156622,1.0246008622646066,0,109.18577639495069,0,124.03617560152659,0,-8.3067489636345861,0,139.96529896843418,4.0958904824281532,11.985060288253209,2.1308457301156905,1.6330100261500085,1.1385615341740261,0.97024656127131725,-694.21026880762929,-2.7369229257634388E-002,110.17305285865079,201.43147851860937,241.06203346931338,301.78106044207073,92.991390795572926,73.611000000000004,22.135333333333335,7.0138236664821036,23.206281985812723,0.24847957016913716
20210920200000,417.85136314240845,21.029864062409917,1.1292620271541287,0,118.31196791219077,0,98.133442139865124,0,-4.6022167361119406,1,152.01994181164773,4.1477997604180503,13.253291463704812,2.1714493624094575,1.6842099331265068,1.3195972311727897,1.0191143569445837,-742.21710767906586,-2.5598978793972486E-002,101.83102591688464,186.17959271602686,222.80942154960977,278.93095625232519,92.955052066623267,72.743666666666670,22.320666666666682,7.3265275488072943,23.339473279317190,0.36076262910030849
20210920203000,418.52750530431223,21.139612304255142,1.1333141512923948,0,24.580392142113460,0,52.880633854320969,0,-0.75053899335783925,0,148.82780022741113,3.6263046657119369,11.657878981299666,2.0350744904070801,1.5513498893901956,1.1839675609287998,1.0200755288553125,-3582.1472226450901,-5.3040812727876176E-003,111.14474156466240,203.20803537741645,243.18811829035252,304.44266634760896,92.937352907505982,75.691000000000003,21.751333333333321,6.3114136764625712,22.918230582473825,9.6907988120532570E-002
20210920210000,419.13135961585192,21.374967116204388,0.83837736067080504,0,-2.1536119283342812,2,54.128072224946713,0,0.52650874956445681,2,144.62358300560697,3.6483148465454631,11.646183634390090,1.7390212342586564,1.3274787189480672,1.0274454001235709,0.87744208709304716,26011.853862524542,7.3043621190619680E-004,110.36278911078566,201.77837690078579,241.47718223369549,302.30077743173263,92.886747153428828,77.105333333333334,21.620666666666693,5.8969248711201248,22.837244739956361,6.1962438289985676E-002
20210920213000,420.27651149678996,21.341126155391002,0.96138976028757650,0,-0.70480933525850420,2,28.320532828341268,0,-7.1231113661783488E-002,1,133.41949379639030,4.2589976768615854,13.205179712970043,1.9882877393317682,1.4555697058450989,1.0623856560494362,0.93990400159577214,97631.223129840786,1.9460987367465120E-004,113.52615785824658,207.56202387585992,248.39873049881041,310.96573451886036,92.805854539713565,77.244666666666674,21.550999999999988,5.8361155861006271,22.760153821309416,6.4916442662676779E-002
20210920220000,420.21088604199514,21.527916720377583,1.0896042823158871,0,32.650751293744413,1,-14.914365829319447,2,0.90028881081192713,2,142.38243020896005,4.4777774090465048,12.598328818166509,2.0823765200523114,1.6496337687334939,1.3050317483095999,1.0011510651669728,-2546.1507666161942,-7.4622446750279387E-003,101.28793780318634,185.18665443511634,221.62112802733537,277.44335377047668,92.761824808225242,77.156999999999996,21.704333333333352,5.9137855812085309,22.790248474331349,0.13808472445462860
20210920223000,419.96570636645060,21.703085857827503,1.1456030376201412,0,36.740618804186532,0,60.386512658539694,0,-2.1795691317840422,0,145.23908651828484,4.5984633056124098,13.354606691397832,2.2532791406918431,1.6825874763820117,1.3105724568093118,1.0272248058286515,-2442.4382397389277,-7.7791117461504002E-003,103.04299407151881,188.39545704011562,225.46124520589890,282.25072479315673,92.666485621961797,77.412666666666667,21.766000000000020,5.8696687578003068,22.653591844346806,0.14248415940023224